Regional Weather Roundup
Issued by NWS

Home | Current Version | Previous Version | Text Only | Print | Product List | Glossary Off
Versions: 1 2 3 4 5 6 7 8 9 10 11 12 13 14 15 16 17 18 19 20 21 22 23 24 25 26 27 28 29 30 31 32 33 34 35 36 37 38 39 40 41 42 43 44 45 46 47 48 49 50

390
ASUS43 KIND 170809
RWRIN

WEATHER ROUNDUP FOR INDIANA
NATIONAL WEATHER SERVICE INDIANAPOLIS IN
300 AM EST TUE JAN 17 2017

NOTE: "FAIR" INDICATES FEW OR NO CLOUDS BELOW 12,000 FEET WITH NO
SIGNIFICANT WEATHER AND/OR OBSTRUCTIONS TO VISIBILITY.

* - STATION DOES NOT REPORT WEATHER SUCH AS PRECIPITATION OR FOG.

+ - STATION NOT QUALITY CONTROLLED BY THE NATIONAL WEATHER SERVICE.
    USE DATA WITH CAUTION...ESPECIALLY DEWPOINT AND RELATIVE
    HUMIDITY OBSERVATIONS.

INZ001>003-010>013-019-020-170900-
NORTHWEST INDIANA

CITY           SKY/WX    TMP DP  RH WIND       PRES   REMARKS
GARY /AIRPORT/ TSTM      50  50  99 SE9       29.74F
KNOX *+        CLOUDY    48  45  87 S14       29.78F
LA PORTE +     FOG       40  40 100 E8        29.78F VSB 1/4
MICHIGAN CITY+ CLOUDY    45  45 100 SE5       29.77F FOG
MONTICELLO +   LGT RAIN  50  49  95 S9        29.80F
RENSSELAER +   CLOUDY    50  50 100 S15       29.78S
VALPARAISO     LGT RAIN  49  49 100 SE9       29.76F VSB 1

$$

LMZ046-743>745-170900-
SOUTHERN LAKE MICHIGAN

STATION/POSITION TIME  TEMP    WIND        PRES    WAVE
                       AIR SEA DIR/SP/G            HT
                 (UTC) (F)     (DEG/KT/KT) (MB)    (FT)
BURNS HARBOR     0740   49     150/  9/ 16 1008.1F

$$

INZ004-005-014>016-021>024-170900-
NORTH CENTRAL INDIANA

CITY           SKY/WX    TMP DP  RH WIND       PRES   REMARKS
GOSHEN         LGT RAIN  42  40  92 SE9       29.83F FOG
LOGANSPORT +   CLOUDY    48  48 100 S13       29.82F
PERU/GRISSOM   CLOUDY    50  50 100 S10       29.81F
ROCHESTER +    LGT RAIN  50  50 100 S9        29.82F
SOUTH BEND     LGT RAIN  40  40 100 SE12      29.81F VSB 1/2
WARSAW +       DRIZZLE   46  45  93 SE7       29.83F

$$

INZ006>009-017-018-025>027-170900-
NORTHEAST INDIANA

CITY           SKY/WX    TMP DP  RH WIND       PRES   REMARKS
ANGOLA *+      CLOUDY    36  36 100 E8        29.89F
AUBURN +       FOG       41  37  87 E6        29.88F VSB 1/4
FORT WAYNE     LGT RAIN  46  45  96 SE8       29.88F VSB 3/4
HUNTINGTON +   CLOUDY    48  47  95 SE6       29.86F FOG
KENDALLVILLE + RAIN      39  39 100 SE8       29.87F VSB 1/2

$$

INZ028-029-035-036-043>045-051>053-170900-
WEST CENTRAL INDIANA

CITY           SKY/WX    TMP DP  RH WIND       PRES   REMARKS
CRAWFORDSVL +  CLOUDY    54  54 100 S18G26    29.83F
GREENCASTLE +  CLOUDY    55  55 100 S9        29.86F
LAFAYETTE      CLOUDY    54  54 100 S10G20    29.80F
TERRE HAUTE    CLOUDY    57  55  93 S14       29.85F

$$

INZ030>032-037>040-046>048-054>057-064-065-170900-
CENTRAL INDIANA

CITY           SKY/WX    TMP DP  RH WIND       PRES   REMARKS
CP ATTERBURY + CLOUDY    55  54  94 S8        29.91F
FISHERS *+     CLOUDY    54  54 100 S13       29.87F
FRANKFORT +    CLOUDY    55  54  95 S9G18     29.84F
GREENWOOD *+   CLOUDY    55  55 100 S8        29.90F
INDIANAPOLIS   CLOUDY    55  54  96 S13       29.87F
-EAGLE CREEK   CLOUDY    55  53  93 S7        29.87F
KOKOMO +       CLOUDY    51  50  96 S15       29.85F
MARION +       CLOUDY    52  52 100 S13       29.87F FOG
MT COMFORT *+  CLOUDY    54  52  94 S10       29.89F
SHELBYVILLE    CLOUDY    56  53  90 S14       29.90F
ZIONSVILLE +   CLOUDY    53  52  98 S13       29.87F

$$

INZ033-034-041-042-049-050-058-059-170900-
EAST CENTRAL INDIANA

CITY           SKY/WX    TMP DP  RH WIND       PRES   REMARKS
MUNCIE         CLOUDY    55  52  89 S10       29.88F

$$

INZ060-061-067>069-081>083-085>088-170900-
SOUTHWEST INDIANA

CITY           SKY/WX    TMP DP  RH WIND       PRES   REMARKS
EVANSVILLE     CLOUDY    60  57  89 S10       29.90F
HUNTINGBURG *+ CLOUDY    58  57  97 S10       29.91F
WASHINGTON +   CLOUDY    58  56  94 S10       29.89R

$$

INZ062-063-066-070>080-084-089>092-170900-
SOUTH CENTRAL AND SOUTHEAST INDIANA

CITY           SKY/WX    TMP DP  RH WIND       PRES   REMARKS
BLOOMINGTON    CLOUDY    59  54  83 S13       29.88F
MADISON *+     CLOUDY    55  54  94 S7        29.97F
NORTH VERNON + RAIN     N/A N/A N/A S13G22    29.92F
SEYMOUR +      CLOUDY    57  55  94 S10       29.92F

$$





USA.gov is the U.S. government's official web portal to all federal, state and local government web resources and services.